Location: Spring Creek
(38.2870°N, 100.2160°W)
Time: 02:44:39
(UTC+00:00)

Cosmos 1656 - Pass Details

Date: 08 May 2021
Orbit: 797 x 851 km, 71.1° (Epoch: 22 June)

Event Time Altitude Azimuth Distance (km) Brightness Sun altitude
Exits shadow 09:26:49 48° 234° (SW) 1,033 3.7 -21.8°
Maximum altitude 09:28:11 67° 294° (WNW) 870 3.6 -21.6°
Drops below altitude 10° 09:33:38 10° 17° (NNE) 2,401 6.9 -20.8°
Sets 09:36:06 0° 20° (NNE) 3,344 7.9 -20.5°
